User: anonymous   Login
Location: Brno
(49.2000°N, 16.6330°E)
Time: 15:10:49
(UTC+02:00)
Language:

Cosmos 1603 - Orbit

View from above orbital plane
View from above orbital plane
View from above satellite
View from above satellite

Ground track
Ground track

The orbit data is extracted from the following two-line orbital elements,

1 15333U 84106A   17086.92754267 -.00000126 +00000-0 -40962-4 0  9994
2 15333 071.0260 262.5287 0021101 325.2119 034.7622 14.14058514676537
Epoch (UTC): 27 March 2017 22:15:39
Eccentricity: 0.0021101
inclination: 71.0260°
perigee height: 830 km
apogee height: 861 km
right ascension of ascending node: 262.5287°
argument of perigee: 325.2119°
revolutions per day: 14.14058514
mean anomaly at epoch: 34.7622°
orbit number at epoch: 67653

The dashed part of the orbit path shows where the satellite is in the earth's shadow,  

DLR